Regional Weather Roundup
Issued by NWS Wakefield, VA

Home | Current Version | Previous Version | Graphics & Text | Print | Product List | Glossary On
Versions: 1 2 3 4 5 6 7 8 9 10 11 12 13 14 15 16 17 18 19 20 21 22 23 24 25 26 27 28 29 30 31 32 33 34 35 36 37 38 39 40 41 42 43 44 45 46 47 48 49 50
673
ASUS41 KAKQ 212015
RWRAKQ

REGIONAL WEATHER ROUNDUP
NATIONAL WEATHER SERVICE WAKEFIELD VA
400 PM EDT SAT APR 21 2018

Note: "fair" indicates few or no clouds below 12,000 feet with no
significant weather and/or obstructions to visibility. * = Denotes
station may not report precipitation (e.g., rain,snow,etc.),
thunder or fog.

VAZ042-051-052>054-056-212100-
NORTHERN VIRGINIA

CITY           SKY/WX    TMP DP  RH WIND       PRES   REMARKS
WASH NATIONAL  PTSUNNY   61  30  31 E6        30.36F
DULLES         PTSUNNY   61  28  28 CALM      30.35F
FORT BELVOIR   FAIR      61  28  29 SE8       30.35F
QUANTICO       FAIR      60  35  39 E5        30.37F
FREDERICKSBRG* FAIR      64  30  28 NW5       30.34F
STAFFORD*      FAIR      63  26  24 CALM      30.39F
WARRENTON      FAIR      62  21  20 NE3       30.35F
CULPEPER*      FAIR      62  26  25 CALM      30.36F
MANASSAS*      FAIR      61  28  28 CALM      30.36F
LEESBURG*      FAIR      61  32  33 CALM      30.36F
WINCHESTER     FAIR      57  27  30 CALM      30.35F
FRONT ROYAL*   FAIR      61  30  31 N7        30.33F
LURAY*         FAIR      63  28  27 S3        30.32F
$$

VAZ048-049-060>072-079>083-212100-
CENTRAL AND SOUTH CENTRAL VIRGINIA

CITY           SKY/WX    TMP DP  RH WIND       PRES   REMARKS
RICHMOND       FAIR      61  28  28 VRB3      30.35F
CHESTERFIELD*  FAIR      64  28  25 VRB5      30.35F
PETERSBURG*    FAIR      65  24  21 CALM      30.36F
HANOVER        FAIR      64  28  25 N5        30.36F
TAPPAHANNOCK*  FAIR      63  33  32 NE6       30.36F
QUINTON*       FAIR      62  30  29 W6        30.36F
CHARLOTTSVILLE FAIR      65  28  24 SW12      30.33F
GORDONSVILLE*  FAIR      63  30  28 CALM      30.33F
ORANGE*        FAIR      63  32  31 CALM      30.34F
LOUISA*        FAIR      64  26  23 W5        30.38F
BUMPASS*       FAIR      62  24  24 CALM      30.34F
FARMVILLE*     FAIR      67  24  20 CALM      30.33F
CREWE*         FAIR      65  32  29 W6        30.34F
FORT PICKETT*  FAIR      64  31  28 SW5       30.35F
CHASE CITY*    FAIR      65  29  26 S3        30.34F
CLARKSVILLE*   FAIR      64  32  29 E6        30.34F
SOUTH HILL*    FAIR      64  31  29 W5        30.41F
LAWRENCEVILLE* FAIR      65  30  26 SE5       30.34F
EMPORIA*       FAIR      64  32  29 E3        30.37F
$$

VAZ088>098-212100-
SOUTHEAST VIRGINIA

CITY           SKY/WX    TMP DP  RH WIND       PRES   REMARKS
NORFOLK        FAIR      55  36  48 NE10      30.39F
VIRGINIA BEACH FAIR      53  37  54 E10       30.39F
NORFOLK NAVAL  FAIR      55  36  48 E9        30.40F
WEST POINT*    FAIR      62  29  29 SW5       30.39S
SALUDA*        FAIR      53  34  49 E9        30.39F
NEWPORT NEWS   FAIR      58  35  42 E10       30.39F
LANGLEY AFB    MOSUNNY   56  33  42 NE12      30.39F
FORT EUSTIS    FAIR      59  38  46 S8        30.35F
WILLIAMSBURG*  FAIR      66  34  30 CALM      30.38F
HR EXEC AP*    FAIR      62  34  35 VRB7      30.38F
FRANKLIN*      FAIR      64  33  31 NE5       30.37S
US460-WAKEFLD  FAIR      65  31  28 N8        30.36F
$$

VAZ020-022-025-037-045-212100-
WEST CENTRAL AND SOUTHWEST VIRGINIA

CITY           SKY/WX    TMP DP  RH WIND       PRES   REMARKS
STAUNTON*      FAIR      61  30  31 CALM      30.33F
WAYNESBORO*    FAIR      62  20  20 CALM      30.32F
HOT SPRINGS VA FAIR      58  12  16 S3        30.32F
LYNCHBURG      FAIR      63  26  24 S9        30.34F
DANVILLE       FAIR      67  32  27 SW6       30.33F
SOUTH BOSTON*  FAIR      66  25  21 CALM      30.34F
MARTINSVILLE   FAIR      67  28  23 S3        30.35F
ROANOKE        FAIR      65  31  28 VRB3      30.34F
BLACKSBURG     FAIR      64  30  27 E5        30.34F
DUBLIN*        FAIR      66  24  20 W3        30.33S
MARION*        FAIR      67  30  25 E7        30.32F
HILLSVILLE*    FAIR      62  27  27 S6        30.31F
RICHLANDS*     FAIR      65  -3   6 SW5       30.30F
WISE*          FAIR      68  30  24 S5        30.30F
ABINGDON*      FAIR      71  25  18 NW3       30.29F
$$

MDZ021>025-VAZ099-100-212100-
SOUTHERN MARYLAND AND THE DELMARVA PENINSULA

CITY           SKY/WX    TMP DP  RH WIND       PRES   REMARKS
PATUXENT RIVER FAIR      58  34  40 SE12      30.37F
BAY BRIDGE APT FAIR      57  30  35 S6        30.37F
LEONARDTOWN    FAIR      57  32  38 W6        30.38F
DOVER          PTSUNNY   58  29  32 W9        30.34F
GEORGETOWN     FAIR      61  29  29 VRB5      30.35F
EASTON         MOSUNNY   59  28  31 N8        30.41F
CAMBRIDGE      SUNNY     57  28  33 N10       30.37F
SALISBURY      FAIR      58  26  29 VRB3      30.36F
TANGIER        FAIR      55  28  35 N6        30.39F
OCEAN CITY     FAIR      50  34  54 S9        30.39F
WALLOPS ISLAND FAIR      54  37  52 S13       30.39F
ACCOMACK*      FAIR      55  30  37 NW7       30.39F
$$

NCZ012>017-030>032-212100-
NORTH CENTRAL AND EASTERN NORTH CAROLINA

CITY           SKY/WX    TMP DP  RH WIND       PRES   REMARKS
ROANOKE RAPIDS FAIR      64  32  29 SW3       30.35F
RALEIGH        FAIR      68  36  30 VRB6      30.34F
ELIZABETH CITY FAIR      58  44  60 SE12      30.39F
AHOSKIE*       FAIR      63  32  31 CALM      30.36F HAZE
EDENTON*       FAIR      62  42  47 SE7       30.37F
CURRITUCK*     NOT AVBL
KILL DEVIL HLS FAIR      52  39  61 E5        30.39F
MANTEO         NOT AVBL
CAPE HATTERAS  FAIR      59  38  45 NE8G17    30.39F
TARBORO*       NOT AVBL
GOLDSBORO      FAIR      67  36  32 NE6       30.33F
WASHINGTON     FAIR      67  33  28 CALM      30.35F
GREENVILLE     FAIR      66  32  28 CALM      30.36F
NEW BERN       FAIR      64  40  41 E9        30.37F
WILMINGTON     FAIR      66  31  27 VRB7      30.35F
$$

VAZ048-212100-
ELSEWHERE

CITY           SKY/WX    TMP DP  RH WIND       PRES   REMARKS
HARRISBURG PA  PTSUNNY   58  27  30 VRB5      30.34F
BALTIMORE      PTSUNNY   61  27  27 W6        30.34F
ANNAPOLIS      FAIR      55  36  48 SE12      30.37F
ANDREWS AFB    FAIR      60  24  25 NW5       30.35F
PHILADELPHIA   PTSUNNY   60  25  26 W12       30.32F
HENDERSON NC   FAIR      64  29  27 CALM      30.34F
GREENSBORO     FAIR      66  31  27 CALM      30.32F
ROCKY MOUNT    FAIR      66  33  29 VRB5      30.35F
$$

VAZ100-212100-
MARINE

STATION/POSITION TIME  TEMP    WIND        PRES    WAVE   SWELL
                       AIR SEA DIR/SP/G            HT/PER HT/PER
                 (UTC) (F)     (DEG/KT/KT) (MB)    (FT/S) (FT/S)
BRANDYWINE LGT   1942   51     350/  4/  5 1028.4F
CAPE MAY NJ      1948   52 49  270/  7/  9 1027.4F
LEWES DE         1948   51 51   30/  5/  6 1027.9F
15NM E FENWICK I 1950   46 48  190/ 10/ 12 1029.0F   2/ 5   2/ 5
OCEAN-CITY-INLET 1948   49 50  200/  8/ 11 1029.5F
WACHAPREAGUE VA  1948   49 58  170/  6/ 10 1029.4F
THOMAS POINT MD  2000   51 51  150/  7/  8 1029.3F
GOOSES REEF MD   2000   51     200/  8/  8 1029.2
COVE POINT MD    1948   49     170/ 10/ 11 1029.4F
SOLOMONS ISLAND  1948   51 53   90/  8/ 10 1028.2F
BISHOPS HEAD MD  1948   51 60  220/  8/  9 1029.4F
PINEY POINT MD   1942          170/  5/  6   N/A
POTOMAC MD       2000   50 55  130/  8/ 10 1030.2    0
CAMBRIDGE MD     1948   57 57              1029.5F
LEWISETTA VA     1948   50 54  130/ 10/ 12 1028.9F
RAPPAHANNOCK LGT 1942           30/ 11/ 13 1029.8F
YORK RVR RNG VA  1948   51     100/  8/  9 1029.9F
YORKTOWN VA      1948   51 56   80/ 12/ 13 1028.9F
DOMINION TERM VA 1948   52      80/  9/ 12 1029.5F
KIPTOPEKE VA     1948      54  180/  9/ 10   N/A
CAPE HENRY VA    1948   48     100/  8/  9   N/A
WILLOUBY STN VA  1948   50      70/  8/ 10 1029.2F
S CRANEY ISL VA  1948   55      50/  6/  8 1028.8F
CAPE HENRY BUOY  2000      51                N/A     2/ 5
64NM E OF VA BCH 1950   46 49   20/  8/ 10 1030.4F   3/ 5   2/ 5
DUCK PIER NC     1948   49 53   70/  8/  9 1029.2F
44100 DUCK FRF   1945      51                N/A     2/ 5
44056 DUCK FRF   2000      53                N/A     2/ 4
OREGON INLET NC  1942   50 55   40/ 10/ 13 1029.5F
HATTERAS NC      1948   55 61   40/ 10/ 13 1028.9F
DIAMOND SHLS NC  1950   56 71   30/ 12/ 16 1029.2F   4/ 8   3/ 8
CAPE LOOKOUT NC  2000           80/ 12/ 13 1029.0F
$$




USA.gov is the U.S. government's official web portal to all federal, state and local government web resources and services.